This demonstration page uses our WeatherBlox Daily Observations layout. Learn more.

Left ArrowRight Arrow

34.02893, -84.19858

Hourly Observations for December 9, 2018

Temp ( °F °C ) Dew Point ( °F °C ) Humidity (%) Winds ( mph kmh ) Pressure ( in mb ) Visibility ( mi km ) Precip ( " mm )
12:53 am 00:53 Cloudy with Rain 36 2.2 34 1.1 93 93 VRB 6 9 30.17 1022 4 6 0.06 1.52
1:24 am 01:24 Cloudy with Heavy Rain 36 2.2 34 1.1 93 93 ENE 12 19 30.15 1021 3 4 0.16 4.06
1:38 am 01:38 Cloudy with Heavy Rain 36 2.2 34 1.1 93 93 NE 10 17 30.15 1021 3 5 0.25 6.35
1:53 am 01:53 Cloudy with Rain 36 2.2 34 1.1 93 93 VRB 7 11 30.15 1021 4 6 0.30 7.62
2:06 am 02:06 Cloudy with Heavy Rain 35 1.7 33 0.6 93 93 ENE 10 17 30.09 1019 3 4 0.10 2.54
2:08 am 02:08 Cloudy with Heavy Rain 35 1.7 33 0.6 93 93 NE 8 13 30.09 1019 3 5 0.11 2.79
2:53 am 02:53 Cloudy with Light Rain 35 1.7 33 0.6 93 93 ENE 9 15 30.09 1019 4 6 0.19 4.83
3:43 am 03:43 Cloudy with Rain 35 1.7 33 0.6 93 93 ENE 12 19 30.09 1019 4 6 0.13 3.30
3:53 am 03:53 Cloudy with Heavy Rain 35 1.7 33 0.6 93 93 ENE 13 20 30.06 1018 3 5 0.16 4.06
4:06 am 04:06 Cloudy with Light Rain 35 1.7 33 0.6 93 93 E 9 15 30.06 1018 8 13 0.01 0.25
4:14 am 04:14 Cloudy with Light Rain 35 1.7 33 0.6 93 93 E 10 17 30.03 1017 8 13 0.01 0.25
4:53 am 04:53 Cloudy with Light Rain 35 1.7 33 0.6 93 93 ENE 8 13 30.04 1017 7 11 0.03 0.76
5:53 am 05:53 Cloudy with Rain 35 1.7 32 0 89 89 ENE 13 20 30.04 1017 6 10 0.05 1.27
6:53 am 06:53 Cloudy with Light Rain 34 1.1 32 0 92 92 VRB 7 11 30.06 1018 6 10 0.14 3.56
7:53 am 07:53 Cloudy with Light Rain 34 1.1 32 0 92 92 ENE 8 13 30.04 1017 6 10 0.02 0.51
8:53 am 08:53 Cloudy 35 1.7 32 0 89 89 E 10 17 30.03 1017 10 16 0.00 0.03
9:53 am 09:53 Cloudy with Light Rain 35 1.7 33 0.6 93 93 ENE 9 15 30.05 1018 3 5 0.00 0.03
10:03 am 10:03 Cloudy with Light Rain 35 1.7 33 0.6 93 93 NNE 8 13 30.03 1017 3 4 0.00 0.03
10:13 am 10:13 Cloudy with Mist and Fog 35 1.7 33 0.6 93 93 E 8 13 30.03 1017 3 5 0.00 0.03
10:53 am 10:53 Cloudy with Mist and Fog 36 2.2 34 1.1 93 93 VRB 3 6 30.04 1017 5 8 0.00 0.03
11:02 am 11:02 Cloudy with Mist and Fog 36 2.2 34 1.1 93 93 ENE 10 17 30.03 1017 5 8 0.00 0.00
11:53 am 11:53 Cloudy 36 2.2 33 0.6 89 89 ENE 12 19 30.02 1017 10 16 0.00 0.00
12:02 pm 12:02 Cloudy 36 2.2 33 0.6 89 89 VRB 7 11 30.00 1016 9 14 0.00 0.00
12:53 pm 12:53 Cloudy with Mist and Fog 36 2.2 33 0.6 89 89 E 9 15 30.01 1016 6 10 0.00 0.00
1:53 pm 13:53 Cloudy 36 2.2 33 0.6 89 89 ENE 6 9 29.99 1016 10 16 0.00 0.00
2:53 pm 14:53 Cloudy with Mist and Fog 36 2.2 33 0.6 89 89 VRB 7 11 29.99 1016 6 10 0.00 0.00
3:07 pm 15:07 Cloudy with Mist and Fog 37 2.8 34 1.1 89 89 VRB 3 6 29.97 1015 6 10 0.00 0.00
3:53 pm 15:53 Cloudy 37 2.8 33 0.6 86 86 NE 9 15 30.00 1016 10 16 0.00 0.00
4:00 pm 16:00 Cloudy 37 2.8 33 0.6 86 86 VRB 5 7 30.00 1016 10 16 0.00 0.00
4:53 pm 16:53 Cloudy 37 2.8 33 0.6 86 86 Calm 30.01 1016 10 16 0.00 0.00
5:53 pm 17:53 Cloudy 37 2.8 33 0.6 86 86 E 3 6 30.03 1017 10 16 0.00 0.00
6:53 pm 18:53 Cloudy 38 3.3 34 1.1 86 86 NNE 6 9 30.03 1017 10 16 0.00 0.00
7:53 pm 19:53 Cloudy 38 3.3 35 1.7 89 89 NNE 6 9 30.04 1017 10 16 0.00 0.00
8:53 pm 20:53 Cloudy 38 3.3 35 1.7 89 89 N 6 9 30.04 1017 7 11 0.00 0.00
9:03 pm 21:03 Cloudy with Light Rain 37 2.8 36 2.2 96 96 N 6 9 30.03 1017 5 8 0.00 0.03
9:39 pm 21:39 Cloudy with Light Rain 37 2.8 36 2.2 96 96 N 3 6 30.03 1017 7 11 0.01 0.25
9:53 pm 21:53 Cloudy 38 3.3 36 2.2 93 93 NNW 3 6 30.04 1017 7 11 0.01 0.25
10:00 pm 22:00 Cloudy 38 3.3 36 2.2 93 93 N 3 6 30.03 1017 8 13 0.00 0.00
10:53 pm 22:53 Cloudy with Light Rain 38 3.3 36 2.2 93 93 N 5 7 30.04 1017 9 14 0.00 0.03
11:16 pm 23:16 Cloudy with Light Rain 38 3.3 37 2.8 97 97 Calm 30.03 1017 8 13 0.00 0.03
11:53 pm 23:53 Cloudy 38 3.3 37 2.8 97 97 Calm 30.04 1017 7 11 0.00 0.03

Powered by AerisWeather